Погода в Перещепино

Украина / Днепропетровская область     49°00′51″N   35°21′54″E
темп.,
°C
ветер,
м/с
пор.,
м/с
влажн.,
%
обл.,
%
осадки,
мм/ч
давл.,
гПа
погр.,
м
20 января, чт
чт2023:00−13сз119756 0.0 102214
02:00−13зюз229612 0.0 102113
05:00−11юз239617 0.0 102050
08:00−10ю369453 0.0 1019108
11:00−5ююз58865 0.0 1018321
14:00−2ююз5108563 0.0 1015558
17:00−4ю51289100 0.0 1014293
20:00−4ю71684100 0.0 1012371
21 января, пт
пт2123:00−3ююв71589100 0.0 1010369
02:000ю71396100 0.4 1006695
05:00−2юз5109462 0.5 1006361
08:00−3зюз51296100 0.6 1007439
11:00−1зюз711846 0.4 10081129
14:00−2зюз7128285 0.4 1008879
17:00−3юз6138383 0.0 1010380
20:00−4юз6138537 0.0 1010415
22 января, сб
сб2223:00−5юз511885 0.0 1011303
02:00−6юз5118924 0.0 1011276
05:00−7юз510916 0.0 1010243
08:00−8ююз49935 0.0 1011198
11:00−4юз5789100 0.0 1012427
14:00−2юз468690 0.1 1012664
17:00−5ююз359271 0.0 101498
20:00−7ююз239399 0.0 101544
23 января, вс
вс2323:00−8ююз22967 0.0 101610
02:00−10вюв119737 0.0 101710
05:00−10всв229767 0.0 101721
08:00−9всв3596100 0.0 101985
11:00−5св4689100 0.0 1020242
14:00−4ссв51090100 0.0 1020436
17:00−5ссв61391100 0.0 1021473
20:00−6ссв71687100 0.0 1020528
24 января, пн
пн2423:00−6ссв71495100 0.8 1019631
02:00−5ссв71394100 1.4 1018516
05:00−5ссв61296100 0.5 1018429
08:00−3св51196100 1.2 1019433
11:00−2св699384 0.4 1020391
14:00−2св5994100 0.5 1021393
17:00−4св4994100 0.0 1022299
20:00−5св4896100 0.4 1023336